Weather History for Broome, WE

Change the Weather History Date:

Monday, April 1, 2013

  Actual Average Record
Temperature  
Mean Temperature 90 °F -  
Max Temperature 98 °F 94 °F - ()
Min Temperature 81 °F 72 °F - ()
Cooling Degree Days 24    
Growing Degree Days 40 (Base 50)    
Moisture  
Dew Point 72 °F    
Average Humidity 55    
Maximum Humidity 75    
Minimum Humidity 31    
Precipitation  
Precipitation 0.00 in 0.03 in - ()
Sea Level Pressure  
Sea Level Pressure 29.77 in    
Wind  
Wind Speed 10 mph ()    
Max Wind Speed 15 mph    
Max Gust Speed -    
Visibility 8.3 miles    
Events      
T = Trace of Precipitation, MM = Missing Value Source: Averaged Metar Reports

Daily Weather History Graph

Daily Weather History Graph

Search for Another Location

Airport:

Trip Planner

Search our weather history database for the weather conditions in past years. The results will help you decide how hot, cold, wet, or windy it might be!

Date:

Astronomy

Apr. 01, 2013 Rise Set
Actual Time 5:57 AM AWST 5:52 PM AWST
Civil Twilight 5:35 AM AWST 6:14 PM AWST
Nautical Twilight 5:10 AM AWST 6:39 PM AWST
Astronomical Twilight 4:45 AM AWST 7:04 PM AWST
Moon 10:04 PM AWST (4/1) 10:30 AM AWST (4/1)
Length of Visible Light 12h 38m
Length of Day
11h 54m
Waning Gibbous, 72% of the Moon is Illuminated
Apr 1
Waning Gibbous
Apr 3
Last Quarter
Apr 10
New
Apr 18
First Quarter
Apr 26
Full

Hourly Weather History & Observations

Time (AWST) Temp. Heat Index Dew Point Humidity Pressure Visibility Wind Dir Wind Speed Gust Speed Precip Events Conditions
12:00 AM 87 °F - 72 °F 51% 29.80 in - SSW 6.9 mph - -  
12:00 AM 87.8 °F 93.8 °F 71.6 °F 58% 29.80 in 6.2 mi SSW 6.9 mph - N/A   Scattered Clouds
12:30 AM 87.8 °F 92.6 °F 69.8 °F 55% 29.77 in 6.2 mi South 8.1 mph - N/A   Unknown
1:00 AM 87.8 °F 91.4 °F 68.0 °F 52% 29.77 in 6.2 mi South 9.2 mph - N/A   Unknown
1:30 AM 87.8 °F 91.4 °F 68.0 °F 52% 29.77 in 6.2 mi SSE 12.7 mph - N/A   Unknown
2:00 AM 86 °F - 67 °F 44% 29.77 in - SSE 13.8 mph - -  
2:00 AM 86.0 °F 89.4 °F 68.0 °F 55% 29.77 in 6.2 mi SSE 13.8 mph - N/A   Scattered Clouds
2:30 AM 86.0 °F 89.4 °F 68.0 °F 55% 29.77 in 6.2 mi SSE 12.7 mph - N/A   Unknown
3:00 AM 85 °F - 67 °F 45% 29.76 in - SSE 11.5 mph - -  
3:00 AM 86.0 °F 88.2 °F 66.2 °F 51% 29.74 in 6.2 mi SSE 11.5 mph - N/A   Unknown
3:30 AM 86.0 °F 88.2 °F 66.2 °F 51% 29.74 in 6.2 mi SSE 10.4 mph - N/A   Unknown
4:00 AM 86.0 °F 88.2 °F 66.2 °F 51% 29.74 in 6.2 mi SE 11.5 mph - N/A   Scattered Clouds
4:30 AM 86.0 °F 88.2 °F 66.2 °F 51% 29.74 in 6.2 mi SE 12.7 mph - N/A   Mostly Cloudy
5:00 AM 85 °F - 66 °F 43% 29.77 in - SE 12.7 mph - -  
5:00 AM 84.2 °F 86.6 °F 66.2 °F 55% 29.77 in 6.2 mi SE 12.7 mph - N/A   Mostly Cloudy
5:30 AM 84.2 °F 86.6 °F 66.2 °F 55% 29.77 in - SE 12.7 mph - N/A   Clear
6:00 AM 83 °F - 66 °F 48% 29.78 in 19 mi ESE 12.7 mph - -   Partly Cloudy
6:00 AM 82.4 °F 84.6 °F 66.2 °F 58% 29.77 in - ESE 12.7 mph - N/A   Clear
6:30 AM 84.2 °F 86.6 °F 66.2 °F 55% 29.77 in - SE 13.8 mph - N/A   Clear
7:00 AM 84.2 °F 86.6 °F 66.2 °F 55% 29.80 in - ESE 12.7 mph - N/A   Clear
7:30 AM 84.2 °F 87.3 °F 68.0 °F 58% 29.80 in - ESE 10.4 mph - N/A   Clear
8:00 AM 86 °F - 69 °F 47% 29.81 in - ESE 11.5 mph - -  
8:00 AM 86.0 °F 89.4 °F 68.0 °F 55% 29.80 in - ESE 11.5 mph - N/A   Clear
8:30 AM 87.8 °F 92.6 °F 69.8 °F 55% 29.80 in - ESE 11.5 mph - N/A   Clear
9:00 AM 90 °F - 70 °F 43% 29.81 in 19 mi East 15.0 mph - -   Partly Cloudy
9:00 AM 89.6 °F 94.7 °F 69.8 °F 52% 29.80 in - East 15.0 mph - N/A   Clear
9:30 AM 91.4 °F 98.4 °F 71.6 °F 52% 29.80 in - East 15.0 mph - N/A   Clear
10:00 AM 93.2 °F 100.5 °F 71.6 °F 49% 29.80 in - East 15.0 mph - N/A   Clear
10:30 AM 93.2 °F 100.5 °F 71.6 °F 49% 29.80 in 6.2 mi ENE 15.0 mph - N/A   Unknown
11:00 AM 95 °F - 72 °F 38% 29.79 in - ENE 15.0 mph - -  
11:00 AM 95.0 °F 103.2 °F 71.6 °F 47% 29.77 in - ENE 15.0 mph - N/A   Clear
11:30 AM 95.0 °F 103.2 °F 71.6 °F 47% 29.77 in - East 15.0 mph - N/A   Clear
12:00 PM 95 °F - 72 °F 38% 29.77 in 19 mi ENE 12.7 mph - -   Partly Cloudy
12:00 PM 95.0 °F 103.2 °F 71.6 °F 47% 29.77 in - ENE 12.7 mph - N/A   Clear
12:30 PM 96.8 °F 105.1 °F 71.6 °F 44% 29.74 in - ENE 11.5 mph - N/A   Clear
1:00 PM 95.0 °F 104.5 °F 73.4 °F 49% 29.74 in - East 8.1 mph - N/A   Clear
1:30 PM 96.8 °F 105.1 °F 71.6 °F 44% 29.74 in - East 9.2 mph - N/A   Clear
2:00 PM 97 °F - 72 °F 35% 29.73 in - ENE 9.2 mph - -  
2:00 PM 96.8 °F 105.1 °F 71.6 °F 44% 29.71 in 6.2 mi ENE 9.2 mph - N/A   Partly Cloudy
2:30 PM 96.8 °F 105.1 °F 71.6 °F 44% 29.71 in 6.2 mi NE 8.1 mph - N/A   Scattered Clouds
3:00 PM 97 °F - 69 °F 31% 29.72 in 19 mi ENE 8.1 mph - -  
3:00 PM 96.8 °F 103.1 °F 69.8 °F 41% 29.71 in 6.2 mi ENE 8.1 mph - N/A   Partly Cloudy
3:30 PM 98.6 °F 107.7 °F 71.6 °F 42% 29.71 in 6.2 mi ENE 6.9 mph - N/A   Partly Cloudy
4:00 PM 95.0 °F 104.5 °F 73.4 °F 49% 29.71 in 6.2 mi SSW 9.2 mph - N/A   Partly Cloudy
4:30 PM 89.6 °F 102.2 °F 77.0 °F 66% 29.74 in 6.2 mi NW 15.0 mph - N/A   Scattered Clouds
5:00 PM 89 °F - 76 °F 57% 29.75 in - WNW 10.4 mph - -  
5:00 PM 89.6 °F 99.8 °F 75.2 °F 62% 29.74 in 6.2 mi WNW 10.4 mph - N/A   Partly Cloudy
5:30 PM 87.8 °F 99.7 °F 77.0 °F 70% 29.74 in 6.2 mi WNW 10.4 mph - N/A   Partly Cloudy
6:00 PM 88 °F - 77 °F 62% 29.76 in 19 mi WSW 10.4 mph - -   Scattered Clouds
6:00 PM 87.8 °F 99.7 °F 77.0 °F 70% 29.74 in - WSW 10.4 mph - N/A   Clear
6:30 PM 87.8 °F 99.7 °F 77.0 °F 70% 29.77 in - NW 6.9 mph - N/A   Clear
7:00 PM 87.8 °F 99.7 °F 77.0 °F 70% 29.77 in - NW 5.8 mph - N/A   Clear
7:30 PM 87.8 °F 99.7 °F 77.0 °F 70% 29.77 in - NW 5.8 mph - N/A   Clear
8:00 PM 88 °F - 76 °F 61% 29.79 in - West 8.1 mph - -  
8:00 PM 87.8 °F 99.7 °F 77.0 °F 70% 29.77 in - West 8.1 mph - N/A   Clear
8:30 PM 87.8 °F 99.7 °F 77.0 °F 70% 29.80 in - West 6.9 mph - N/A   Clear
9:00 PM 87 °F - 78 °F 68% 29.80 in 25 mi WSW 6.9 mph - -   Partly Cloudy
9:00 PM 87.8 °F 102.5 °F 78.8 °F 75% 29.80 in - WSW 6.9 mph - N/A   Clear
9:30 PM 86.0 °F 95.1 °F 75.2 °F 70% 29.80 in 6.2 mi WSW 5.8 mph - N/A   Unknown
10:00 PM 86.0 °F 96.9 °F 77.0 °F 74% 29.77 in 6.2 mi South 8.1 mph - N/A   Unknown
10:30 PM 86.0 °F 95.1 °F 75.2 °F 70% 29.77 in 6.2 mi South 5.8 mph - N/A   Scattered Clouds
11:00 PM 87 °F - 76 °F 62% 29.79 in - SSW 3.5 mph - -  
11:00 PM 86.0 °F 95.1 °F 75.2 °F 70% 29.77 in 6.2 mi SSW 3.5 mph - N/A   Mostly Cloudy
11:30 PM 87.8 °F 97.6 °F 75.2 °F 66% 29.77 in 6.2 mi South 4.6 mph - N/A   Mostly Cloudy